| time (UTC) | temp F | wind direction | speed MPH | gust MPH | rain 1hr in | rain 24hr in | rain mn in | humidity % | barometer mb |
| 20260505225016 | 89 | 0.0 | 0.0 | 0.00 | 0.00 | 0.00 | 55 | 978.6 | |
| 20260505224116 | 89 | 0.0 | 0.0 | 0.00 | 0.00 | 0.00 | 54 | 978.6 | |
| 20260505223016 | 90 | 0.0 | 2.0 | 0.00 | 0.00 | 0.00 | 55 | 978.4 | |
| 20260505222016 | 90 | 231 | 1.0 | 4.0 | 0.00 | 0.00 | 0.00 | 55 | 978.2 |
| 20260505221016 | 90 | 0.0 | 0.0 | 0.00 | 0.00 | 0.00 | 54 | 978.2 | |
| 20260505220016 | 90 | 0.0 | 6.0 | 0.00 | 0.00 | 0.00 | 54 | 978.3 | |
| 20260505215016 | 91 | 291 | 0.0 | 6.0 | 0.00 | 0.00 | 0.00 | 52 | 978.4 |
| 20260505214016 | 91 | 227 | 1.0 | 5.0 | 0.00 | 0.00 | 0.00 | 53 | 978.5 |
| 20260505213016 | 91 | 251 | 1.0 | 6.0 | 0.00 | 0.00 | 0.00 | 54 | 978.6 |
| 20260505212016 | 91 | 206 | 2.0 | 7.0 | 0.00 | 0.00 | 0.00 | 55 | 978.8 |
| 20260505211016 | 90 | 256 | 2.0 | 8.0 | 0.00 | 0.00 | 0.00 | 56 | 978.9 |
| 20260505210036 | 89 | 237 | 8.0 | 14.0 | 0.00 | 0.00 | 0.00 | 56 | 978.9 |
| 20260505205016 | 89 | 149 | 0.0 | 3.0 | 0.00 | 0.00 | 0.00 | 58 | 979.0 |
| 20260505204036 | 88 | 213 | 2.0 | 8.0 | 0.00 | 0.00 | 0.00 | 58 | 979.2 |
| 20260505203016 | 88 | 232 | 1.0 | 8.0 | 0.00 | 0.00 | 0.00 | 58 | 979.3 |
| 20260505202036 | 88 | 209 | 0.0 | 6.0 | 0.00 | 0.00 | 0.00 | 58 | 979.4 |
| 20260505201016 | 89 | 186 | 0.0 | 6.0 | 0.00 | 0.00 | 0.00 | 58 | 979.3 |
| 20260505200016 | 88 | 258 | 1.0 | 11.0 | 0.00 | 0.00 | 0.00 | 59 | 979.4 |
| 20260505195016 | 88 | 247 | 4.0 | 9.0 | 0.00 | 0.00 | 0.00 | 59 | 979.4 |
| 20260505194017 | 87 | 200 | 4.0 | 11.0 | 0.00 | 0.00 | 0.00 | 62 | 979.6 |
| 20260505193036 | 86 | 192 | 2.0 | 4.0 | 0.00 | 0.00 | 0.00 | 64 | 979.4 |
| 20260505192016 | 86 | 238 | 4.0 | 10.0 | 0.00 | 0.00 | 0.00 | 64 | 979.5 |
| 20260505190016 | 84 | 241 | 4.0 | 10.0 | 0.00 | 0.00 | 0.00 | 66 | 979.7 |
| 20260505185016 | 84 | 198 | 1.0 | 5.0 | 0.00 | 0.00 | 0.00 | 66 | 979.8 |
| 20260505184016 | 84 | 184 | 3.0 | 5.0 | 0.00 | 0.00 | 0.00 | 66 | 979.7 |
| 20260505183016 | 84 | 201 | 3.0 | 6.0 | 0.00 | 0.00 | 0.00 | 67 | 979.8 |
| 20260505182016 | 84 | 153 | 1.0 | 3.0 | 0.00 | 0.00 | 0.00 | 68 | 979.7 |
| 20260505181036 | 83 | 184 | 4.0 | 9.0 | 0.00 | 0.00 | 0.00 | 67 | 979.8 |
| 20260505180016 | 83 | 214 | 2.0 | 6.0 | 0.00 | 0.00 | 0.00 | 69 | 979.9 |
| 20260505175036 | 83 | 191 | 3.0 | 7.0 | 0.00 | 0.00 | 0.00 | 68 | 979.8 |
| 20260505174016 | 82 | 214 | 5.0 | 8.0 | 0.00 | 0.00 | 0.00 | 68 | 979.8 |
| 20260505173016 | 82 | 235 | 3.0 | 9.0 | 0.00 | 0.00 | 0.00 | 70 | 980.0 |
| 20260505172016 | 81 | 247 | 1.0 | 11.0 | 0.00 | 0.00 | 0.00 | 72 | 979.9 |
| 20260505171036 | 80 | 204 | 3.0 | 7.0 | 0.00 | 0.00 | 0.00 | 72 | 980.1 |
| 20260505170016 | 80 | 195 | 2.0 | 7.0 | 0.00 | 0.00 | 0.00 | 72 | 980.2 |
| 20260505165016 | 81 | 189 | 6.0 | 11.0 | 0.00 | 0.00 | 0.00 | 71 | 979.9 |
| 20260505164036 | 80 | 226 | 5.0 | 15.0 | 0.00 | 0.00 | 0.00 | 73 | 979.9 |
| 20260505163016 | 80 | 204 | 4.0 | 10.0 | 0.00 | 0.00 | 0.00 | 73 | 979.9 |
| 20260505162036 | 80 | 199 | 4.0 | 7.0 | 0.00 | 0.00 | 0.00 | 73 | 979.8 |
| 20260505161016 | 79 | 186 | 0.0 | 8.0 | 0.00 | 0.00 | 0.00 | 74 | 979.8 |
| 20260505153016 | 78 | 224 | 5.0 | 12.0 | 0.00 | 0.00 | 0.00 | 77 | 979.7 |
| 20260505152016 | 77 | 233 | 2.0 | 10.0 | 0.00 | 0.00 | 0.00 | 79 | 979.7 |
| 20260505151016 | 77 | 213 | 0.0 | 7.0 | 0.00 | 0.00 | 0.00 | 80 | 979.8 |
| 20260505125016 | 72 | 213 | 1.0 | 5.0 | 0.00 | 0.00 | 0.00 | 87 | 979.4 |
| 20260505124036 | 72 | 189 | 1.0 | 6.0 | 0.00 | 0.00 | 0.00 | 88 | 979.4 |
| 20260505123016 | 72 | 190 | 1.0 | 2.0 | 0.00 | 0.00 | 0.00 | 88 | 979.1 |
| 20260505122016 | 72 | 215 | 1.0 | 4.0 | 0.00 | 0.00 | 0.00 | 88 | 979.0 |
| 20260505121016 | 71 | 176 | 5.0 | 8.0 | 0.00 | 0.00 | 0.00 | 88 | 979.0 |
| 20260505120016 | 71 | 199 | 4.0 | 8.0 | 0.00 | 0.00 | 0.00 | 88 | 979.0 |
| 20260505115016 | 71 | 0.0 | 4.0 | 0.00 | 0.00 | 0.00 | 88 | 978.9 | |
| 20260505114016 | 71 | 183 | 1.0 | 5.0 | 0.00 | 0.00 | 0.00 | 88 | 978.8 |
| 20260505113036 | 71 | 184 | 4.0 | 7.0 | 0.00 | 0.00 | 0.00 | 88 | 978.7 |
| 20260505112056 | 71 | 225 | 2.0 | 8.0 | 0.00 | 0.00 | 0.00 | 88 | 978.7 |
| 20260505111036 | 71 | 192 | 2.0 | 4.0 | 0.00 | 0.00 | 0.00 | 88 | 978.8 |
| 20260505102016 | 71 | 144 | 2.0 | 6.0 | 0.00 | 0.00 | 0.00 | 87 | 978.9 |
| 20260505101016 | 71 | 206 | 1.0 | 6.0 | 0.00 | 0.00 | 0.00 | 87 | 978.8 |
| 20260505100016 | 71 | 196 | 2.0 | 6.0 | 0.00 | 0.00 | 0.00 | 87 | 978.9 |
| 20260505095016 | 72 | 190 | 3.0 | 8.0 | 0.00 | 0.00 | 0.00 | 87 | 979.0 |
| 20260505094016 | 71 | 146 | 0.0 | 3.0 | 0.00 | 0.00 | 0.00 | 87 | 979.0 |
| 20260505093016 | 71 | 152 | 3.0 | 9.0 | 0.00 | 0.00 | 0.00 | 87 | 979.0 |
| 20260505092016 | 71 | 0.0 | 2.0 | 0.00 | 0.00 | 0.00 | 87 | 979.1 | |
| 20260505091016 | 71 | 228 | 3.0 | 11.0 | 0.00 | 0.00 | 0.00 | 88 | 979.3 |
| 20260505090016 | 71 | 202 | 1.0 | 9.0 | 0.00 | 0.00 | 0.00 | 88 | 979.1 |
| 20260505085036 | 71 | 205 | 0.0 | 6.0 | 0.00 | 0.00 | 0.00 | 88 | 979.2 |
| 20260505084016 | 71 | 171 | 2.0 | 5.0 | 0.00 | 0.00 | 0.00 | 88 | 979.2 |
| 20260505083016 | 71 | 203 | 2.0 | 6.0 | 0.00 | 0.00 | 0.00 | 88 | 979.2 |
| 20260505082016 | 71 | 212 | 1.0 | 6.0 | 0.00 | 0.00 | 0.00 | 88 | 979.3 |
| 20260505081036 | 71 | 196 | 1.0 | 5.0 | 0.00 | 0.00 | 0.00 | 87 | 979.3 |
| 20260505080016 | 71 | 188 | 1.0 | 3.0 | 0.00 | 0.00 | 0.00 | 87 | 979.4 |
| 20260505075056 | 71 | 185 | 0.0 | 2.0 | 0.00 | 0.00 | 0.00 | 86 | 979.5 |
| 20260505074016 | 71 | 182 | 3.0 | 5.0 | 0.00 | 0.00 | 0.00 | 86 | 979.7 |
| 20260505073016 | 71 | 198 | 0.0 | 3.0 | 0.00 | 0.00 | 0.00 | 85 | 979.9 |
| 20260505072016 | 72 | 184 | 1.0 | 3.0 | 0.00 | 0.00 | 0.00 | 85 | 980.1 |
| 20260505071016 | 72 | 182 | 1.0 | 10.0 | 0.00 | 0.00 | 0.00 | 84 | 980.1 |
| 20260505070016 | 72 | 192 | 2.0 | 8.0 | 0.00 | 0.00 | 0.00 | 84 | 980.2 |
| 20260505065016 | 72 | 199 | 0.0 | 5.0 | 0.00 | 0.00 | 0.00 | 83 | 980.3 |
| 20260505064016 | 72 | 179 | 1.0 | 5.0 | 0.00 | 0.00 | 0.00 | 83 | 980.5 |
| 20260505063056 | 72 | 193 | 2.0 | 5.0 | 0.00 | 0.00 | 0.00 | 82 | 980.5 |
| 20260505062036 | 72 | 213 | 0.0 | 5.0 | 0.00 | 0.00 | 0.00 | 81 | 980.4 |
| 20260505061036 | 73 | 186 | 1.0 | 4.0 | 0.00 | 0.00 | 0.00 | 81 | 980.5 |
| 20260505060016 | 73 | 203 | 2.0 | 6.0 | 0.00 | 0.00 | 0.00 | 80 | 980.6 |
| 20260505055016 | 73 | 197 | 2.0 | 6.0 | 0.00 | 0.00 | 0.00 | 79 | 980.6 |
| 20260505054016 | 73 | 196 | 2.0 | 5.0 | 0.00 | 0.00 | 0.00 | 79 | 980.6 |
| 20260505053016 | 73 | 161 | 0.0 | 4.0 | 0.00 | 0.00 | 0.00 | 78 | 980.9 |
| 20260505052016 | 73 | 192 | 4.0 | 8.0 | 0.00 | 0.00 | 0.00 | 77 | 980.9 |
| 20260505051016 | 73 | 145 | 0.0 | 3.0 | 0.00 | 0.00 | 0.00 | 77 | 981.0 |
| 20260505041016 | 74 | 193 | 1.0 | 4.0 | 0.00 | 0.00 | 0.00 | 74 | 981.2 |
| 20260505040036 | 74 | 181 | 0.0 | 2.0 | 0.00 | 0.00 | 0.00 | 74 | 981.3 |
| 20260505035036 | 74 | 162 | 1.0 | 6.0 | 0.00 | 0.00 | 0.00 | 73 | 981.1 |
| 20260505034016 | 74 | 223 | 1.0 | 5.0 | 0.00 | 0.00 | 0.00 | 73 | 981.1 |
| 20260505033016 | 75 | 195 | 2.0 | 4.0 | 0.00 | 0.00 | 0.00 | 72 | 981.1 |
| 20260505032016 | 75 | 166 | 2.0 | 4.0 | 0.00 | 0.00 | 0.00 | 72 | 981.2 |
| 20260505031016 | 75 | 173 | 2.0 | 5.0 | 0.00 | 0.00 | 0.00 | 71 | 981.3 |
| 20260505030016 | 75 | 179 | 0.0 | 2.0 | 0.00 | 0.00 | 0.00 | 71 | 981.2 |
| 20260505025016 | 75 | 0.0 | 2.0 | 0.00 | 0.00 | 0.00 | 70 | 981.3 | |
| 20260505024016 | 75 | 182 | 0.0 | 1.0 | 0.00 | 0.00 | 0.00 | 70 | 981.3 |
| 20260505023016 | 75 | 177 | 2.0 | 5.0 | 0.00 | 0.00 | 0.00 | 70 | 981.1 |
| 20260505022016 | 75 | 0.0 | 1.0 | 0.00 | 0.00 | 0.00 | 69 | 981.1 | |
| 20260505021017 | 76 | 203 | 1.0 | 5.0 | 0.00 | 0.00 | 0.00 | 69 | 980.9 |
| 20260505020016 | 76 | 189 | 0.0 | 5.0 | 0.00 | 0.00 | 0.00 | 68 | 980.9 |
| 20260505015017 | 76 | 0.0 | 3.0 | 0.00 | 0.00 | 0.00 | 68 | 981.0 | |
| 20260505014016 | 76 | 138 | 0.0 | 2.0 | 0.00 | 0.00 | 0.00 | 67 | 981.0 |
| 20260505013016 | 76 | 172 | 2.0 | 9.0 | 0.00 | 0.00 | 0.00 | 67 | 981.0 |
| 20260505012036 | 77 | 201 | 2.0 | 4.0 | 0.00 | 0.00 | 0.00 | 66 | 981.0 |
| 20260505011016 | 77 | 179 | 1.0 | 4.0 | 0.00 | 0.00 | 0.00 | 66 | 981.0 |
| 20260505010016 | 77 | 162 | 2.0 | 4.0 | 0.00 | 0.00 | 0.00 | 65 | 980.9 |
| 20260505005017 | 77 | 170 | 0.0 | 3.0 | 0.00 | 0.00 | 0.00 | 64 | 980.8 |
| 20260505004016 | 78 | 197 | 1.0 | 8.0 | 0.00 | 0.00 | 0.00 | 64 | 980.9 |
| 20260505003016 | 78 | 181 | 1.0 | 6.0 | 0.00 | 0.00 | 0.00 | 62 | 981.0 |
| 20260505002017 | 79 | 158 | 1.0 | 7.0 | 0.00 | 0.00 | 0.00 | 61 | 981.0 |
| 20260505001036 | 79 | 160 | 2.0 | 5.0 | 0.00 | 0.00 | 0.00 | 61 | 981.2 |
| 20260505000016 | 79 | 190 | 1.0 | 8.0 | 0.00 | 0.00 | 0.00 | 61 | 981.2 |
| 20260504235016 | 79 | 201 | 6.0 | 9.0 | 0.00 | 0.00 | 0.00 | 61 | 981.4 |
| 20260504234016 | 79 | 189 | 3.0 | 7.0 | 0.00 | 0.00 | 0.00 | 61 | 981.4 |
| 20260504233016 | 79 | 186 | 5.0 | 11.0 | 0.00 | 0.00 | 0.00 | 59 | 981.3 |
| 20260504232017 | 80 | 159 | 4.0 | 9.0 | 0.00 | 0.00 | 0.00 | 59 | 981.3 |
| 20260504231016 | 80 | 193 | 4.0 | 8.0 | 0.00 | 0.00 | 0.00 | 58 | 981.5 |
| 20260504230016 | 81 | 206 | 3.0 | 10.0 | 0.00 | 0.00 | 0.00 | 57 | 981.6 |